Temperature
17 16 16 15 15 15 15 15 15 15 15 15 15 15 15 15 15 15 15 15 15 15 15 15 14 14 14 14 14 14 14 14 14 14 14 14 14 14 14 14 14 14 14
17 16 16 15 15 15 15 15 15 15 15 15 15 15 15 15 15 15 15 15 15 15 15 14 14 14 14 14 14 14 14 14 14 14 14 14 14 14 14 14 14 14 14
17 16 15 15 15 15 15 15 15 15 15 15 15 15 15 15 14 15 15 15 15 14 14 14 14 14 14 14 14 14 14 14 14 14 14 13 13 13 13 13 13 13 13
16 16 15 15 15 15 15 15 15 15 15 15 14 14 15 15 14 14 15 14 14 14 14 14 14 14 14 14 14 14 14 14 14 14 14 13 13 13 13 13 13 13 13
16 15 15 15 15 15 15 15 14 14 14 14 14 14 14 14 14 14 14 14 14 14 14 14 14 14 14 13 13 13 13 13 13 13 13 13 13 13 13 13 12 13 13
15 15 15 15 15 15 15 14 14 14 14 14 14 14 14 14 14 14 14 14 14 14 14 14 14 14 13 13 13 13 13 13 13 13 13 13 13 12 12 12 12 12 12
15 15 15 15 14 14 14 14 14 14 14 14 14 14 14 14 14 14 14 14 14 13 13 13 13 13 13 13 13 13 13 13 13 13 13 13 12 12 12 12 12 12 12
15 15 14 14 14 14 14 14 14 14 14 14 14 14 14 14 14 14 14 14 13 13 13 13 13 13 13 13 13 13 13 13 13 13 13 13 12 12 12 12 12 11 11
15 14 14 14 14 14 14 14 14 14 14 14 13 14 14 14 13 13 13 13 13 13 13 13 13 12 12 13 13 13 13 13 13 13 13 12 12 12 12 11 11 11 11
14 14 14 14 14 13 13 13 13 13 13 13 13 13 13 13 13 13 13 13 13 13 13 13 12 12 12 12 13 13 12 12 12 12 12 12 12 12 11 11 11 11 11
14 14 14 14 13 13 13 13 13 13 13 13 13 13 13 13 13 13 13 13 13 13 13 12 12 12 12 12 12 12 12 12 12 12 12 12 12 11 11 11 11 11 11
13 13 13 13 13 13 13 13 12 13 13 13 13 13 12 12 12 13 12 12 12 12 12 12 12 12 12 12 12 12 12 12 12 12 12 11 11 11 11 11 10 10 10
13 13 13 13 13 13 13 12 12 12 12 12 12 12 12 12 12 12 12 12 12 12 12 12 12 12 12 12 12 12 12 12 12 12 11 11 11 11 11 11 10 10 10
13 13 13 13 13 12 12 12 12 12 12 12 12 12 12 12 12 12 12 12 12 12 12 12 12 12 11 11 11 11 11 11 11 11 11 11 11 11 11 10 10 10 10
12 12 12 12 12 12 12 12 12 12 12 12 12 12 12 11 12 11 11 12 12 12 12 12 12 11 11 11 11 11 11 11 11 11 11 11 11 11 10 10 10 10 9
12 12 12 12 12 12 12 12 12 12 11 11 11 11 11 11 11 11 11 11 11 11 11 11 11 11 11 11 11 11 11 11 11 11 11 10 10 10 10 10 10 9 9
12 11 11 12 11 11 11 11 11 11 11 11 11 11 11 11 11 11 11 11 11 11 11 11 11 11 11 11 11 11 11 11 10 10 10 10 10 10 10 10 10 9 9
11 11 11 11 11 11 11 11 11 11 11 11 11 11 11 11 10 10 10 11 11 11 11 11 11 11 11 11 10 10 10 10 10 10 10 10 10 10 9 9 9 9 9
11 11 11 11 11 11 11 11 11 11 11 11 11 11 10 10 10 10 10 10 10 10 10 10 10 10 10 10 10 10 10 10 10 10 10 10 9 9 9 9 9 9 9
10 10 10 10 10 11 10 10 10 10 10 10 10 10 10 10 10 10 10 10 10 10 10 10 10 10 10 10 10 10 10 10 10 10 9 9 9 9 9 9 9 9 9
10 10 10 10 10 10 10 10 10 10 10 10 10 10 10 10 9 9 9 9 9 10 10 10 10 9 9 9 9 9 9 9 9 9 9 9 9 8 8 8 8 8 8
10 10 10 10 10 10 10 10 10 10 10 9 9 9 9 9 9 9 9 9 9 9 9 9 9 9 9 9 9 9 9 8 8 8 8 8 8 8 8 8 8 8 8
9 9 9 9 10 10 10 9 9 9 9 9 9 9 9 9 9 9 9 9 9 9 9 9 9 9 9 9 8 8 8 8 8 8 8 8 8 8 8 7 7 7 7
9 9 9 9 9 9 9 9 9 9 9 9 9 8 8 8 8 8 8 8 8 8 8 8 8 8 8 8 8 8 8 8 7 7 7 7 7 7 7 7 7 7 7
8 8 8 8 9 8 8 8 8 9 9 9 8 8 8 8 8 8 8 8 8 8 8 8 8 8 8 8 8 7 7 7 7 7 6 7 7 7 7 7 6 6 6
8 8 8 8 8 8 8 8 8 8 8 8 8 8 7 7 7 7 7 7 7 7 7 7 7 7 7 7 7 7 7 6 6 6 6 6 6 6 6 6 6 6 6
Wind_Speed
4 5 10 11 11 12 12 12 12 12 12 12 12 12 12 12 12 12 12 11 11 11 12 12 12 12 13 14 15 15 15 15 15 15 15 15 15 14 14 13 13 12 13
6 8 12 12 12 13 12 12 12 12 11 11 11 12 12 11 11 11 11 11 11 11 11 12 12 12 12 13 13 14 14 15 15 14 14 13 13 14 13 12 12 12 13
7 9 12 12 13 13 13 12 12 12 11 11 11 11 11 11 11 11 11 11 11 10 11 11 11 12 12 12 12 13 13 14 14 13 13 12 11 12 12 12 12 13 12
7 9 10 13 13 13 13 12 12 12 11 11 10 10 10 10 10 10 10 10 10 10 10 10 11 11 11 12 12 12 13 13 13 12 11 10 9 11 11 12 12 12 12
7 9 11 13 14 13 13 12 12 11 11 11 10 9 10 9 9 9 9 9 9 9 9 10 10 10 11 11 11 12 12 12 12 11 10 9 8 10 11 11 11 11 11
6 8 11 13 13 13 13 12 12 11 11 10 10 10 9 9 9 9 9 9 9 9 9 9 10 10 10 10 10 11 11 11 11 10 9 9 8 9 10 10 10 11 11
6 6 9 12 12 12 13 12 12 11 11 10 10 10 9 9 9 9 8 9 9 9 9 9 9 9 9 10 10 10 10 10 10 9 8 7 7 8 9 10 9 9 9
6 6 7 11 11 11 12 12 12 11 11 10 10 9 9 8 8 8 8 9 8 8 8 8 8 8 9 9 9 9 9 9 8 7 6 5 6 7 8 8 8 8 8
5 5 5 7 9 10 11 11 11 11 11 10 9 9 9 8 8 8 7 8 8 7 7 7 7 8 9 9 9 9 9 8 8 6 5 4 5 6 7 7 7 7 7
4 4 4 5 7 7 9 10 10 10 10 10 9 9 8 7 7 7 7 7 7 7 6 7 7 7 8 8 9 8 8 8 7 5 4 3 4 5 5 5 5 5 5
3 3 3 4 5 6 7 8 9 9 9 9 8 8 8 7 6 6 6 6 6 7 6 6 7 7 7 7 7 7 7 6 5 4 3 3 3 3 4 4 5 5 5
4 4 4 4 4 6 6 6 6 6 7 7 7 7 7 6 6 6 5 5 5 5 6 6 6 7 6 6 5 6 5 5 4 3 2 2 3 3 3 3 3 3 3
5 4 4 4 4 5 4 5 5 5 5 6 7 7 7 6 5 5 5 4 5 5 5 5 5 5 5 4 4 4 4 3 2 2 1 2 2 2 2 2 2 2 2
4 4 4 4 4 5 5 5 5 5 4 4 6 7 7 4 4 4 4 4 4 4 4 4 4 4 4 4 4 3 3 2 2 2 2 2 2 2 1 1 2 3 3
5 5 5 4 5 5 5 4 5 5 5 5 6 7 7 5 3 3 3 4 4 3 3 3 3 3 3 3 3 3 2 2 2 2 3 3 3 2 2 2 2 2 2
5 5 4 5 5 5 5 5 4 5 6 6 5 6 7 6 5 4 3 3 3 3 3 3 3 2 2 2 2 2 2 2 2 2 2 3 3 2 2 2 2 2 2
5 5 5 5 4 5 6 5 4 5 6 5 5 6 7 7 6 5 3 2 3 3 4 3 3 3 2 2 1 1 1 2 2 2 2 2 3 3 3 2 3 3 3
4 4 4 4 5 5 5 5 4 4 5 5 6 6 6 7 7 5 4 3 4 4 4 2 2 1 1 1 1 0 1 1 2 1 2 2 3 3 4 4 3 4 4
5 5 4 4 5 5 5 4 4 4 4 4 5 5 6 6 7 6 4 3 4 3 2 2 1 1 1 1 1 0 1 1 1 2 3 3 3 3 3 4 5 5 4
4 4 4 4 4 4 4 4 3 3 2 3 4 5 6 6 7 6 4 4 4 3 2 2 2 1 1 2 1 1 1 1 2 2 2 3 3 4 4 4 5 5 6
3 3 4 4 3 4 4 4 4 4 3 3 3 5 6 6 6 6 4 4 3 3 3 3 3 2 1 1 2 1 2 2 2 2 2 2 3 4 4 4 4 5 5
3 3 3 4 4 5 4 4 3 3 3 3 3 3 5 6 6 5 5 4 4 3 3 3 3 2 1 1 2 2 1 2 2 1 1 1 2 2 3 3 3 4 4
2 3 3 4 4 4 4 4 3 3 2 1 2 3 3 5 6 6 6 5 4 4 4 4 4 4 2 1 1 3 2 2 1 1 1 0 1 1 1 2 3 4 5
3 2 3 4 4 4 5 5 6 5 4 3 3 3 3 4 5 5 5 5 4 4 4 4 3 3 4 2 1 0 1 2 2 1 2 1 1 1 1 1 2 3 4
1 1 2 3 3 4 4 6 6 4 3 3 3 3 3 2 3 4 5 4 4 4 4 4 3 3 3 3 3 2 1 1 1 2 2 2 2 2 1 1 1 2 3
2 1 1 3 3 3 4 5 5 5 5 5 4 4 3 2 1 2 3 3 4 3 4 4 4 4 3 3 3 3 3 3 2 2 2 2 2 2 2 2 1 1 3
Wind_Direction
188 183 167 153 147 144 138 131 126 123 120 119 117 114 112 112 112 110 107 103 98 94 91 90 89 87 84 83 79 76 76 75 74 72 74 75 74 75 75 74 72 69 70
161 168 163 154 148 145 139 132 127 124 123 123 121 118 116 114 114 113 111 107 102 96 93 90 91 90 88 87 85 81 78 76 72 70 68 69 73 75 75 77 76 74 73
147 160 161 154 149 146 141 136 131 129 125 124 123 122 121 117 117 118 114 110 106 100 95 89 90 91 90 89 90 87 83 80 75 70 63 58 68 74 74 77 77 76 75
149 155 157 154 151 147 143 139 136 132 128 125 124 123 124 122 119 119 117 112 107 103 99 94 93 92 92 91 93 92 87 83 77 70 59 53 63 73 73 76 77 75 74
146 151 157 153 151 148 144 142 139 135 131 127 125 125 124 125 121 118 120 117 111 106 103 100 96 94 95 95 95 92 89 85 77 70 60 52 59 74 73 71 75 74 72
141 147 158 155 153 151 147 145 142 138 134 131 128 126 123 121 119 118 119 120 117 111 107 106 101 98 99 98 97 96 92 87 77 70 58 52 57 74 74 71 73 73 71
143 141 154 155 154 152 149 146 144 141 138 135 133 131 127 123 121 119 120 120 118 116 112 110 108 107 107 102 99 96 93 88 78 70 57 49 60 75 76 74 73 72 70
143 137 148 154 152 151 150 148 146 144 141 138 136 135 133 128 125 122 125 126 124 122 118 116 113 110 107 103 98 96 94 90 81 69 58 49 68 76 76 71 71 70 68
132 130 137 150 152 152 150 147 148 146 144 141 138 135 131 128 125 124 123 131 130 125 124 121 118 114 110 106 100 96 94 91 85 71 59 55 72 77 78 72 70 68 63
136 134 133 142 145 149 151 150 146 145 144 142 139 135 130 127 125 121 122 133 136 131 126 124 122 119 114 111 107 101 93 88 84 75 63 66 72 74 79 78 74 70 65
158 157 143 141 144 146 148 150 147 143 140 137 136 133 125 118 118 117 122 124 131 134 129 127 126 119 109 107 107 103 93 87 84 70 65 77 74 68 75 76 78 70 63
193 192 172 161 152 148 149 144 137 139 139 133 129 125 121 117 116 114 115 117 117 122 126 123 122 112 101 94 96 96 91 86 82 65 63 78 68 62 69 69 73 66 58
201 197 191 177 161 153 148 141 134 129 132 134 130 128 123 116 111 106 101 98 96 96 98 103 99 96 99 98 94 91 92 87 73 52 46 73 66 57 58 62 54 54 55
200 206 198 184 171 164 157 152 147 141 134 140 144 141 132 121 114 110 103 101 98 100 95 96 95 95 96 99 103 101 94 88 72 42 30 54 58 44 29 34 45 43 46
205 211 204 191 181 176 162 160 155 156 155 155 154 153 148 140 138 130 121 114 110 112 109 106 103 98 93 88 89 96 88 83 77 61 28 32 42 30 7 10 13 21 37
212 212 202 194 188 177 176 171 167 165 160 154 159 161 159 155 149 143 136 125 120 125 126 125 126 117 106 96 83 79 76 74 83 72 43 29 34 34 22 7 358 356 5
215 213 207 194 187 179 178 175 172 168 162 158 161 164 163 160 156 152 150 147 140 136 125 113 104 100 111 104 96 75 71 69 71 69 54 39 28 21 21 12 0 348 350
209 207 211 198 189 188 183 175 174 171 165 166 160 161 164 165 162 153 155 162 154 143 130 126 119 110 114 123 116 88 55 60 57 55 59 46 38 21 18 18 6 1 355
210 202 202 195 191 189 180 168 160 162 172 167 160 159 164 167 168 158 161 160 154 139 137 143 127 136 142 124 122 96 64 58 49 54 54 50 49 45 34 23 22 15 3
210 199 195 192 192 179 166 154 148 151 166 160 164 166 164 168 169 161 155 154 149 143 148 138 133 107 127 133 97 59 53 49 61 66 55 51 52 51 52 45 37 26 15
201 192 192 183 188 174 171 169 168 179 181 180 175 172 167 166 169 165 163 158 156 162 166 156 139 127 114 121 97 47 31 47 56 67 59 58 46 41 47 43 39 33 16
206 200 197 191 188 187 185 179 168 158 171 178 166 170 172 165 167 172 170 169 168 161 156 162 148 152 141 122 128 111 14 350 7 35 36 60 41 30 33 24 25 21 3
231 211 203 202 188 184 168 153 131 108 97 122 169 182 183 173 170 171 173 167 168 169 176 180 172 165 171 182 152 151 151 216 275 329 336 20 18 10 11 6 9 3 352
248 220 196 192 183 175 162 160 164 169 175 188 185 179 168 169 168 170 169 167 169 173 178 187 184 173 163 179 188 141 152 156 166 276 313 310 315 301 309 338 344 343 342
275 206 191 171 167 165 165 168 170 169 168 153 146 143 152 147 147 159 165 165 169 175 180 179 176 173 178 180 182 168 140 128 159 177 242 287 307 277 271 271 292 320 326
5 44 154 158 163 162 165 167 171 166 158 151 153 156 162 158 146 139 158 166 170 171 182 182 177 172 182 182 188 185 171 170 182 184 203 234 270 280 284 267 261 292 317
Height
1507 1509 1511 1513 1516 1518 1519 1521 1522 1523 1524 1526 1527 1528 1528 1529 1530 1530 1531 1532 1532 1533 1533 1534 1534 1535 1535 1535 1535 1536 1536 1536 1536 1537 1537 1537 1538 1538 1538 1538 1538 1539 1539
1506 1508 1511 1513 1515 1517 1519 1521 1522 1524 1525 1526 1527 1528 1529 1529 1530 1531 1532 1532 1533 1534 1534 1535 1535 1535 1536 1536 1536 1536 1537 1537 1537 1538 1538 1538 1539 1539 1539 1539 1539 1539 1539
1506 1508 1510 1513 1515 1517 1519 1521 1522 1524 1525 1526 1527 1528 1529 1530 1531 1531 1532 1533 1534 1534 1535 1535 1536 1536 1536 1536 1537 1537 1537 1538 1538 1539 1539 1539 1540 1540 1540 1540 1540 1540 1540
1506 1508 1510 1513 1515 1517 1519 1521 1522 1524 1525 1526 1527 1528 1529 1530 1531 1532 1533 1533 1534 1534 1535 1535 1536 1536 1537 1537 1537 1538 1538 1538 1539 1539 1540 1540 1541 1541 1541 1541 1541 1541 1541
1507 1508 1510 1513 1515 1517 1519 1520 1522 1524 1525 1526 1527 1528 1529 1530 1531 1532 1533 1534 1534 1535 1535 1536 1536 1537 1537 1538 1538 1538 1539 1539 1540 1540 1540 1541 1541 1542 1542 1542 1542 1542 1542
1507 1509 1511 1513 1515 1516 1518 1520 1522 1523 1524 1526 1527 1528 1529 1530 1531 1532 1533 1533 1534 1535 1535 1536 1537 1537 1538 1538 1538 1539 1539 1540 1540 1541 1541 1542 1542 1543 1543 1543 1542 1542 1542
1506 1508 1511 1512 1514 1516 1518 1520 1521 1523 1524 1525 1526 1527 1528 1530 1531 1532 1533 1533 1534 1535 1535 1536 1536 1537 1538 1538 1539 1539 1540 1540 1541 1541 1542 1542 1543 1543 1543 1543 1543 1543 1543
1506 1508 1510 1512 1514 1515 1517 1519 1521 1522 1524 1525 1526 1527 1528 1529 1530 1531 1532 1533 1534 1535 1535 1536 1537 1537 1538 1538 1539 1539 1540 1541 1541 1542 1542 1543 1543 1543 1543 1544 1544 1544 1543
1506 1508 1509 1511 1513 1515 1516 1518 1520 1521 1523 1524 1525 1526 1527 1528 1529 1530 1531 1532 1533 1534 1535 1536 1536 1537 1538 1538 1539 1540 1540 1541 1542 1542 1542 1543 1543 1543 1543 1543 1544 1544 1543
1506 1507 1508 1510 1512 1514 1515 1517 1519 1520 1522 1523 1524 1525 1526 1527 1528 1530 1531 1532 1532 1533 1534 1535 1536 1537 1537 1538 1539 1540 1540 1541 1541 1542 1542 1543 1543 1543 1543 1543 1543 1543 1543
1504 1506 1507 1509 1510 1512 1514 1516 1517 1519 1520 1522 1523 1524 1525 1526 1527 1528 1530 1531 1532 1532 1533 1534 1535 1536 1537 1538 1538 1539 1540 1541 1541 1542 1542 1542 1543 1543 1543 1543 1543 1543 1543
1502 1503 1505 1507 1508 1510 1512 1514 1516 1517 1519 1520 1522 1523 1524 1525 1526 1527 1529 1530 1531 1531 1532 1533 1534 1535 1536 1537 1538 1539 1539 1540 1541 1541 1541 1542 1542 1542 1543 1542 1542 1542 1542
1499 1501 1503 1504 1506 1508 1510 1512 1513 1515 1516 1518 1520 1521 1523 1524 1525 1526 1527 1528 1529 1530 1531 1532 1533 1534 1535 1536 1537 1538 1539 1539 1540 1540 1541 1541 1541 1542 1542 1542 1542 1541 1541
1497 1498 1500 1502 1504 1506 1507 1509 1511 1513 1514 1516 1518 1520 1521 1522 1523 1525 1526 1527 1528 1529 1530 1531 1531 1533 1534 1535 1536 1537 1537 1538 1538 1539 1540 1540 1540 1541 1541 1541 1541 1540 1540
1494 1496 1497 1499 1501 1503 1505 1507 1508 1510 1512 1514 1516 1517 1519 1520 1522 1523 1524 1525 1526 1527 1528 1529 1530 1531 1532 1533 1534 1535 1536 1537 1537 1537 1538 1538 1539 1539 1539 1540 1539 1539 1539
1491 1493 1494 1496 1498 1500 1502 1504 1506 1508 1510 1512 1513 1515 1517 1518 1520 1521 1522 1523 1525 1526 1527 1528 1528 1529 1530 1531 1532 1533 1534 1535 1535 1536 1536 1536 1537 1537 1538 1538 1538 1538 1538
1487 1489 1491 1493 1494 1496 1498 1500 1502 1505 1507 1509 1511 1513 1514 1516 1517 1519 1520 1521 1523 1524 1525 1526 1526 1527 1528 1529 1530 1531 1532 1533 1533 1534 1534 1534 1535 1535 1536 1536 1536 1536 1536
1484 1485 1487 1489 1491 1493 1495 1497 1499 1501 1504 1506 1508 1510 1512 1513 1515 1516 1518 1519 1520 1521 1522 1523 1524 1525 1525 1527 1528 1529 1530 1530 1531 1532 1532 1532 1533 1533 1533 1533 1534 1534 1533
1480 1482 1483 1485 1487 1489 1492 1494 1496 1498 1500 1503 1505 1507 1509 1510 1512 1513 1515 1516 1518 1519 1520 1521 1522 1523 1523 1524 1525 1526 1527 1528 1529 1529 1529 1530 1530 1531 1531 1531 1531 1531 1531
1477 1478 1480 1482 1484 1486 1488 1490 1492 1495 1497 1499 1501 1504 1506 1507 1509 1511 1512 1514 1515 1516 1517 1518 1519 1520 1521 1522 1523 1524 1525 1525 1526 1526 1527 1527 1528 1528 1529 1529 1529 1529 1529
1473 1474 1476 1477 1480 1482 1484 1486 1488 1491 1493 1496 1498 1500 1502 1504 1506 1507 1509 1510 1512 1513 1514 1515 1516 1517 1518 1519 1520 1521 1522 1522 1523 1524 1524 1525 1525 1526 1526 1527 1526 1526 1526
1469 1471 1472 1474 1476 1478 1480 1482 1485 1487 1490 1492 1494 1496 1498 1500 1502 1504 1506 1507 1508 1510 1511 1512 1514 1515 1515 1517 1518 1518 1519 1521 1520 1521 1522 1522 1523 1523 1524 1524 1524 1524 1523
1466 1467 1468 1470 1472 1474 1476 1479 1481 1484 1486 1489 1491 1493 1494 1497 1499 1501 1502 1503 1505 1507 1508 1509 1511 1512 1513 1514 1515 1516 1517 1517 1518 1519 1519 1520 1520 1521 1521 1522 1522 1521 1521
1463 1464 1466 1467 1469 1471 1473 1475 1477 1479 1481 1484 1487 1489 1491 1493 1495 1497 1499 1500 1502 1503 1505 1507 1508 1509 1510 1511 1513 1513 1515 1515 1516 1515 1516 1517 1518 1518 1518 1519 1519 1518 1518
1461 1462 1463 1465 1466 1468 1470 1472 1474 1476 1478 1481 1483 1485 1487 1489 1491 1493 1495 1496 1498 1499 1501 1503 1505 1506 1507 1508 1510 1510 1511 1512 1513 1513 1512 1513 1514 1515 1515 1515 1515 1515 1515
1459 1460 1461 1462 1464 1466 1468 1469 1471 1473 1475 1477 1479 1482 1484 1486 1487 1489 1491 1493 1495 1496 1498 1500 1502 1503 1504 1505 1507 1507 1508 1509 1509 1510 1509 1509 1510 1511 1511 1512 1512 1512 1511